Print

CHIHRRCWA 000
TTAA00 KDVN 282004
HOURLY WEATHER ROUNDUP
NATIONAL WEATHER SERVICE QUAD CITIES IA IL
200 PM CST FRI NOV 28 2014

Note: "Fair" indicates few or no clouds below 12,000 feet with no
significant weather and/or obstructions to visibility.

* - These stations are not NWS stations...and not subject to NWS
quality control.  Some stations do not report weather such as fog.

...NORTHEAST IOWA..................................................

  
CITY           SKY/WX    TMP DP  RH WIND       PRES   REMARKS
DECORAH *      CLOUDY    25  19  80 SE9       29.87F WCI  15          
WATERLOO       MOSUNNY   30  23  75 SE10      29.87F WCI  21          
OELWEIN *      NOT AVBL                                               
INDEPENDENCE * MOSUNNY   32  27  80 SE12      29.88F WCI  23          
DUBUQUE        CLOUDY    27  21  78 S12       29.91F WCI  17          

...SOUTHWEST AND SOUTH CENTRAL WISCONSIN...........................

  
CITY           SKY/WX    TMP DP  RH WIND       PRES   REMARKS
PRAIRIE DU CHI PTSUNNY   28  18  68 E9        29.93F WCI  19          
BOSCOBEL       PTSUNNY   28  18  66 S7        29.95F WCI  21          
LONE ROCK      PTSUNNY   30  18  60 SE8       29.95F WCI  22          
MINERAL POINT* NOT AVBL                                               
MONROE *       NOT AVBL                                               
JANESVILLE *   SUNNY     28  21  74 S17       29.97F WCI  16          

...EAST CENTRAL IOWA...............................................

  
CITY           SKY/WX    TMP DP  RH WIND       PRES   REMARKS
MARSHALLTOWN   MOSUNNY   29  23  78 SE9       29.83F WCI  20          
NEWTON *       PTSUNNY   34  28  80 E9        29.83F WCI  26          
VINTON *       MOSUNNY   33  25  73 CALM      29.88F                  
CEDAR RAPIDS   PTSUNNY   30  24  78 SE7       29.89F WCI  23          
IOWA CITY      PTSUNNY   31  25  78 E8        29.91F WCI  23          
MONTICELLO *   PTSUNNY   30  25  80 SE13      29.91F WCI  20          
CLINTON *      CLOUDY    30  25  80 SE8       29.97S WCI  23          
DAVENPORT      CLOUDY    33  24  69 S9        29.93F WCI  25          

...NORTHWEST ILLINOIS..............................................

  
CITY           SKY/WX    TMP DP  RH WIND       PRES   REMARKS
FREEPORT *     CLOUDY    28  22  80 SE8       29.97F WCI  19          
ROCKFORD       CLOUDY    29  22  75 SE10      30.00F WCI  20          
SAVANNA *      CLOUDY    32  25  77 SE5       29.96F WCI  27          
STERLING/R.F.* CLOUDY    34  27  75 S5        29.96F WCI  30          
ROCHELLE *     CLOUDY    30  26  85 SE15G21   29.98F WCI  19          
MOLINE         CLOUDY    34  25  69 S9        29.92F WCI  27          
PERU *         CLOUDY    35  29  79 S17       29.97F WCI  25          

...SOUTHEAST IOWA AND NORTHEAST MISSOURI...........................

  
CITY           SKY/WX    TMP DP  RH WIND       PRES   REMARKS
KNOXVILLE *    MOSUNNY   43  28  56 S13       29.81S WCI  36          
OTTUMWA        PTSUNNY   39  29  67 S13       29.84F WCI  31          
FAIRFIELD *    PTSUNNY   39  28  65 S10       29.86F WCI  32          
WASHINGTON *   PTSUNNY   36  32  87 SE9       29.88F WCI  29          
MT PLEASANT *  PTSUNNY   37  28  70 SE8       29.89F WCI  31          
BURLINGTON     MOSUNNY   39  30  70 S13       29.90F WCI  31          
KIRKSVILLE     MOSUNNY   49  33  54 SW9       29.87F                  

...WESTERN ILLINOIS................................................

  
CITY           SKY/WX    TMP DP  RH WIND       PRES   REMARKS
MACOMB *       MOSUNNY   37  31  81 SE14      29.96F WCI  28          
GALESBURG *    MOSUNNY   35  29  79 SE12      29.92F WCI  27          
PEORIA         MOSUNNY   38  29  70 S17       29.97F WCI  28          
QUINCY         MOSUNNY   47  31  53 S12       29.90F                  

END...
  

USA.gov is the U.S. government's official web portal to all federal, state and local government web resources and services.